Tracking 28238 objects as of 28-Nov-2023
HD Live streaming from Space Station
objects crossing your sky now

DIRECTV 9S

Track DIRECTV 9S now!
DIRECTV 9S is classified as:


NORAD ID: 29494
Int'l Code: 2006-043A
Perigee: 35,780.3 km
Apogee: 35,808.0 km
Inclination: 0.0 °
Period: 1,436.1 minutes
Semi major axis: 42165 km
RCS: 13.8838 m2 (large)
Launch date: October 13, 2006
Source: United States (US)
Launch site: FRENCH GUIANA (FRGUI)

DIRECTV 9S will supply television broadcast services to the contiguous United States of America, Alaska and Hawaii
Your satellite tracking list
Your tracking list is empty




NASA's NSSDC Master Catalog

Two Line Element Set (TLE):
1 29494U 06043A   23332.50788983 -.00000104  00000-0  00000-0 0  9998
2 29494   0.0114 359.0369 0003288 252.1531 257.6082  1.00270276 42046
Source of the keplerian elements: AFSPC